User: anonymous   Login
Location: Unspecified
(0.0000°N, 0.0000°E)
Time: 17:23:16
(UTC+02:00)
Language:

YAOGAN 3 - Orbit

View from above orbital plane
View from above orbital plane
View from above satellite
View from above satellite

Ground track
Ground track

The orbit data is extracted from the following two-line orbital elements,

1 32289U 07055A   14295.10811276  .00001047  00000-0  13841-3 0  7000
2 32289 097.9484 286.1179 0001058 079.7532 280.3802 14.82056191375328
Epoch (UTC): 22 October 2014 02:35:40
Eccentricity: 0.0001058
inclination: 97.9484°
perigee height: 622 km
apogee height: 623 km
right ascension of ascending node: 286.1179°
argument of perigee: 79.7532°
revolutions per day: 14.82056191
mean anomaly at epoch: 280.3802°
orbit number at epoch: 37532

The dashed part of the orbit path shows where the satellite is in the earth's shadow,  

DLR